Manistee, MI

3:42 PM EDT on September 24, 2017 (GMT -0400)
Manistee County-Blacker

Weather History for KMBL - September, 2013

Change the Weather History Date:

Wednesday, September 11, 2013

  Actual Average Record
Temperature  
Mean Temperature 70 °F -  
Max Temperature 75 °F 72 °F 89 °F (1952)
Min Temperature 64 °F 54 °F 36 °F (1992)
Cooling Degree Days 4    
Growing Degree Days 20 (Base 50)    
Moisture  
Dew Point 63 °F    
Average Humidity 77    
Maximum Humidity 94    
Minimum Humidity 65    
Precipitation  
Precipitation 0.00 in - - ()
Sea Level Pressure  
Sea Level Pressure 29.98 in    
Wind  
Wind Speed 7 mph (WSW)    
Max Wind Speed 15 mph    
Max Gust Speed 21 mph    
Visibility 10 miles    
Events Thunderstorm    
Averages and records for this station are not official NWS values.
T = Trace of Precipitation, MM = Missing Value Source: NWS Daily Summary

Daily Weather History Graph

Daily Weather History Graph

Search for Another Location

Airport or City:

Trip Planner

Search our weather history database for the weather conditions in past years. The results will help you decide how hot, cold, wet, or windy it might be!

Date:

Astronomy

Sep. 11, 2013 Rise Set
Actual Time 7:19 AM EDT 8:02 PM EDT
Civil Twilight 6:50 AM EDT 8:31 PM EDT
Nautical Twilight 6:15 AM EDT 9:06 PM EDT
Astronomical Twilight 5:39 AM EDT 9:42 PM EDT
Moon 2:01 PM EDT (9/11) 11:43 PM EDT (9/11)
Length of Visible Light 13h 41m
Length of Day
12h 42m
Waxing Crescent, 38% of the Moon is Illuminated
Sep 11
Waxing Crescent
Sep 12
First Quarter
Sep 19
Full
Sep 26
Last Quarter
Oct 4
New

Hourly Weather History & Observations

Time (EDT) Temp. Dew Point Humidity Pressure Visibility Wind Dir Wind Speed Gust Speed Precip Events Conditions
12:15 AM 73.4 °F 64.4 °F 73% 29.96 in 10.0 mi NE 12.7 mph 18.4 mph N/A   Mostly Cloudy
12:35 AM 73.4 °F 62.6 °F 69% 29.93 in 10.0 mi NE 13.8 mph - N/A   Mostly Cloudy
12:55 AM 73.4 °F 62.6 °F 69% 29.95 in 10.0 mi NE 6.9 mph - N/A   Overcast
1:15 AM 73.4 °F 62.6 °F 69% 29.95 in 10.0 mi ENE 6.9 mph - N/A   Overcast
1:35 AM 73.4 °F 62.6 °F 69% 29.98 in 10.0 mi North 5.8 mph - N/A   Overcast
1:55 AM 71.6 °F 62.6 °F 73% 29.98 in 10.0 mi NNE 6.9 mph - N/A   Mostly Cloudy
2:15 AM 71.6 °F 62.6 °F 73% 29.99 in 10.0 mi NE 3.5 mph - N/A   Mostly Cloudy
2:35 AM 71.6 °F 62.6 °F 73% 30.00 in 10.0 mi North 8.1 mph - N/A   Mostly Cloudy
2:55 AM 69.8 °F 62.6 °F 78% 29.99 in 10.0 mi North 5.8 mph - N/A   Mostly Cloudy
3:15 AM 69.8 °F 62.6 °F 78% 30.00 in 10.0 mi North 5.8 mph - N/A Thunderstorm Mostly Cloudy
3:35 AM 69.8 °F 62.6 °F 78% 29.99 in 10.0 mi NNE 4.6 mph - N/A Thunderstorm Mostly Cloudy
3:55 AM 68.0 °F 62.6 °F 83% 29.98 in 10.0 mi East 5.8 mph - N/A   Scattered Clouds
4:15 AM 68.0 °F 62.6 °F 83% 29.99 in 10.0 mi Calm Calm - N/A   Scattered Clouds
4:35 AM 66.2 °F 62.6 °F 88% 29.97 in 10.0 mi ESE 4.6 mph - N/A   Overcast
4:55 AM 66.2 °F 62.6 °F 88% 29.97 in 10.0 mi ESE 3.5 mph - N/A   Overcast
5:15 AM 66.2 °F 62.6 °F 88% 29.97 in 10.0 mi Calm Calm - N/A   Overcast
5:35 AM 66.2 °F 62.6 °F 88% 29.98 in 10.0 mi Calm Calm - N/A   Overcast
5:55 AM 66.2 °F 62.6 °F 88% 29.98 in 10.0 mi Calm Calm - N/A   Mostly Cloudy
6:15 AM 66.2 °F 62.6 °F 88% 29.99 in 10.0 mi Calm Calm - N/A   Mostly Cloudy
6:35 AM 66.2 °F 62.6 °F 88% 29.98 in 10.0 mi Calm Calm - N/A   Mostly Cloudy
6:55 AM 66.2 °F 62.6 °F 88% 29.99 in 10.0 mi Calm Calm - N/A   Scattered Clouds
7:15 AM 66.2 °F 62.6 °F 88% 30.00 in 10.0 mi Calm Calm - N/A   Scattered Clouds
7:35 AM 66.2 °F 62.6 °F 88% 30.00 in 10.0 mi Calm Calm - N/A   Scattered Clouds
7:55 AM 66.2 °F 62.6 °F 88% 30.00 in 10.0 mi Calm Calm - N/A   Partly Cloudy
8:15 AM 66.2 °F 62.6 °F 88% 30.00 in 10.0 mi Calm Calm - N/A   Mostly Cloudy
8:35 AM 66.2 °F 62.6 °F 88% 30.02 in 10.0 mi SSW 6.9 mph - N/A   Partly Cloudy
8:55 AM 66.2 °F 62.6 °F 88% 30.00 in 10.0 mi Calm Calm - N/A   Clear
9:15 AM 68.0 °F 62.6 °F 83% 30.01 in 10.0 mi SW 3.5 mph - N/A   Partly Cloudy
9:35 AM 71.6 °F 62.6 °F 73% 30.03 in 10.0 mi SW 9.2 mph 16.1 mph N/A   Clear
9:55 AM 71.6 °F 62.6 °F 73% 30.02 in 10.0 mi West 8.1 mph - N/A   Clear
10:15 AM 71.6 °F 62.6 °F 73% 30.02 in 10.0 mi WSW 11.5 mph 20.7 mph N/A   Clear
10:35 AM 71.6 °F 62.6 °F 73% 30.01 in 10.0 mi WSW 10.4 mph 17.3 mph N/A   Clear
10:55 AM 71.6 °F 62.6 °F 73% 30.01 in 10.0 mi WSW 11.5 mph - N/A   Clear
11:15 AM 71.6 °F 62.6 °F 73% 30.00 in 10.0 mi SW 5.8 mph - N/A   Mostly Cloudy
11:35 AM 71.6 °F 64.4 °F 78% 30.00 in 10.0 mi WSW 4.6 mph - N/A   Scattered Clouds
11:55 AM 73.4 °F 62.6 °F 69% 30.00 in 10.0 mi West 8.1 mph - N/A   Clear
12:15 PM 73.4 °F 62.6 °F 69% 30.00 in 10.0 mi West 11.5 mph - N/A   Clear
12:35 PM 75.2 °F 62.6 °F 65% 30.00 in 10.0 mi WSW 13.8 mph 18.4 mph N/A   Clear
12:55 PM 75.2 °F 62.6 °F 65% 30.00 in 10.0 mi West 13.8 mph - N/A   Clear
1:15 PM 75.2 °F 62.6 °F 65% 30.00 in 10.0 mi WSW 12.7 mph 17.3 mph N/A   Clear
1:35 PM 75.2 °F 62.6 °F 65% 30.00 in 10.0 mi West 15.0 mph - N/A   Clear
1:55 PM 75.2 °F 62.6 °F 65% 30.00 in 10.0 mi West 12.7 mph 17.3 mph N/A   Clear
2:15 PM 73.4 °F 62.6 °F 69% 30.00 in 10.0 mi WSW 12.7 mph - N/A   Clear
2:35 PM 75.2 °F 62.6 °F 65% 30.00 in 10.0 mi WSW 10.4 mph - N/A   Clear
2:55 PM 75.2 °F 62.6 °F 65% 30.00 in 10.0 mi West 12.7 mph - N/A   Clear
3:15 PM 75.2 °F 62.6 °F 65% 30.00 in 10.0 mi WSW 9.2 mph 17.3 mph N/A   Clear
3:35 PM 75.2 °F 64.4 °F 69% 30.00 in 10.0 mi West 12.7 mph - N/A   Clear
3:55 PM 75.2 °F 62.6 °F 65% 30.00 in 10.0 mi WSW 11.5 mph 17.3 mph N/A   Clear
4:15 PM 75.2 °F 64.4 °F 69% 30.00 in 10.0 mi West 10.4 mph - N/A   Clear
4:35 PM 75.2 °F 64.4 °F 69% 29.99 in 10.0 mi West 8.1 mph - N/A   Clear
4:55 PM 73.4 °F 64.4 °F 73% 30.00 in 10.0 mi WSW 9.2 mph - N/A   Clear
5:15 PM 73.4 °F 64.4 °F 73% 29.99 in 10.0 mi WSW 8.1 mph - N/A   Clear
5:35 PM 73.4 °F 64.4 °F 73% 29.99 in 10.0 mi WSW 5.8 mph - N/A   Clear
5:55 PM 73.4 °F 64.4 °F 73% 29.98 in 10.0 mi WSW 6.9 mph - N/A   Clear
6:15 PM 73.4 °F 64.4 °F 73% 29.98 in 10.0 mi WSW 8.1 mph - N/A   Clear
6:35 PM 73.4 °F 64.4 °F 73% 29.97 in 10.0 mi WSW 5.8 mph - N/A   Clear
6:55 PM 75.2 °F 64.4 °F 69% 29.97 in 10.0 mi WSW 5.8 mph - N/A   Clear
7:15 PM 75.2 °F 64.4 °F 69% 29.96 in 10.0 mi WSW 5.8 mph - N/A   Clear
7:35 PM 73.4 °F 64.4 °F 73% 29.96 in 10.0 mi WSW 3.5 mph - N/A   Clear
7:55 PM 73.4 °F 64.4 °F 73% 29.95 in 10.0 mi Calm Calm - N/A   Clear
8:15 PM 71.6 °F 62.6 °F 73% 29.95 in 10.0 mi SW 4.6 mph - N/A   Clear
8:35 PM 71.6 °F 62.6 °F 73% 29.95 in 10.0 mi Calm Calm - N/A   Clear
8:55 PM 69.8 °F 62.6 °F 78% 29.95 in 10.0 mi SW 3.5 mph - N/A   Clear
9:15 PM 69.8 °F 62.6 °F 78% 29.95 in 10.0 mi Calm Calm - N/A   Clear
9:35 PM 66.2 °F 60.8 °F 83% 29.95 in 10.0 mi Calm Calm - N/A   Clear
9:55 PM 64.4 °F 60.8 °F 88% 29.95 in 10.0 mi ESE 3.5 mph - N/A   Clear
10:15 PM 64.4 °F 60.8 °F 88% 29.95 in 10.0 mi ESE 3.5 mph - N/A   Mostly Cloudy
10:35 PM 64.4 °F 62.6 °F 94% 29.95 in 10.0 mi Calm Calm - N/A   Overcast
10:55 PM 64.4 °F 62.6 °F 94% 29.94 in 10.0 mi Calm Calm - N/A   Overcast
11:15 PM 66.2 °F 62.6 °F 88% 29.94 in 10.0 mi Calm Calm - N/A   Overcast
11:35 PM 66.2 °F 62.6 °F 88% 29.93 in 10.0 mi Calm Calm - N/A   Overcast
11:55 PM 68.0 °F 64.4 °F 88% 29.93 in 10.0 mi SSW 4.6 mph - N/A   Overcast